Regional Weather Roundup
Issued by NWS

Home | Current Version | Previous Version | Graphics & Text | Print | Product List | Glossary Off
Versions: 1 2 3 4 5 6 7 8 9 10 11 12 13 14 15 16 17 18 19 20 21 22 23 24 25 26 27 28 29 30 31 32 33 34 35 36 37 38 39 40 41 42 43 44 45 46 47 48 49 50

000
ASUS43 KTOP 310708
RWRKS

WEATHER ROUNDUP FOR KANSAS
NATIONAL WEATHER SERVICE GOODLAND KS
200 AM CDT MON AUG 31 2015

NOTE:  "FAIR" INDICATES FEW OR NO CLOUDS BELOW 12,000 FEET WITH NO
SIGNIFICANT WEATHER AND/OR OBSTRUCTIONS TO VISIBILITY.

KSZ001>006-013>018-027>032-041>047-310800-
NORTHWEST KANSAS

CITY           SKY/WX    TMP DP  RH WIND       PRES   REMARKS
GOODLAND       CLEAR     64  49  57 S14       29.98F
HAYS           CLEAR     64  55  72 SE5       29.97S
HILL CITY      CLEAR     66  61  84 S8        29.97S
RUSSELL        CLEAR     67  62  84 SE10      29.95S
$$

KSZ061>065-074>080-084>089-310800-
SOUTHWEST KANSAS

CITY           SKY/WX    TMP DP  RH WIND       PRES   REMARKS
DODGE CITY     CLEAR     64  59  83 SE9       29.98F
ELKHART          N/A     66  51  58 S9          N/A
GARDEN CITY    CLEAR     63  58  83 SE9       29.97F
GREAT BEND     CLEAR     64  57  77 SE7       29.97S
LIBERAL        CLEAR     64  50  59 SE6       29.99S
PRATT          CLEAR     64  61  88 CALM      29.98S
$$

KSZ066>073-081>083-090>101-310800-
SOUTHEAST KANSAS

CITY           SKY/WX    TMP DP  RH WIND       PRES   REMARKS
CHANUTE        CLEAR     71  70  96 E6        29.96S
COFFEYVILLE    FOG       69  69 100 CALM      29.95S VSB 1/4
HUTCHINSON     CLEAR     66  63  90 CALM      29.96S
MEDICINE LODGE   N/A     70  67  90 SE5       29.95S
NEWTON         CLEAR     66  61  82 SE7       29.99S
PARSONS        CLEAR     71  71 100 E3        29.96S FOG
WICHITA INTL   CLEAR     71  68  90 SE6       29.95F
WICHITA JABRA  CLEAR     67  66  97 SE3       29.96F FOG
WICHITA MCCONL CLEAR     70  67  88 E5        29.96S
WINFIELD       CLEAR     70  68  93 E5        29.96F
$$

KSZ007>012-019>026-033>040-048>060-102>105-310800-
NORTHEAST KANSAS

CITY           SKY/WX    TMP DP  RH WIND       PRES   REMARKS
CONCORDIA      CLEAR     64  63  96 SE7       29.96S FOG
EMPORIA        PTCLDY    66  65  96 S3        29.97S
LAWRENCE       CLEAR     66  65  96 CALM      29.96S FOG
MANHATTAN      CLEAR     68  66  93 CALM      29.95F
MARYSVILLE     CLEAR    N/A N/A N/A CALM      29.96F
OLATHE IND     CLEAR     73  70  90 SE6       29.97S
OLATHE EXE     CLEAR     72  70  93 SE5       29.97S
SALINA         CLEAR     67  64  90 S5        29.96R
TOPEKA BILLARD MOCLDY    68  67  96 CALM      29.96S FOG
TOPEKA FORBES  MOCLDY    70  66  87 CALM      29.96S
$$


USA.gov is the U.S. government's official web portal to all federal, state and local government web resources and services.